Time,TemperatureF,DewpointF,PressureIn,WindDirection,WindDirectionDegrees,WindSpeedMPH,WindSpeedGustMPH,Humidity,HourlyPrecipIn,Conditions,Clouds,dailyrainin,SoftwareType,DateUTC
2013-09-08 00:02:00,-999.0,-99.9,29.87,SE,135,0.0,5.0,-999,-99.99,,,-99.99,,2013-09-08 04:02:00,
2013-09-08 01:43:00,59.0,59.0,29.86,SW,225,3.0,6.0,100,-99.99,,,0.00,,2013-09-08 05:43:00,
2013-09-08 01:52:00,59.0,59.0,29.86,SW,225,3.0,6.0,100,-99.99,,,0.00,,2013-09-08 05:52:00,
2013-09-08 02:03:00,59.0,59.0,29.86,SW,225,3.0,6.0,100,-99.99,,,0.00,,2013-09-08 06:03:00,
2013-09-08 02:42:00,59.0,59.0,29.86,SW,225,0.0,5.0,100,-99.99,,,0.00,,2013-09-08 06:42:00,
2013-09-08 02:53:00,59.0,59.0,29.86,SW,225,0.0,5.0,100,-99.99,,,0.00,,2013-09-08 06:53:00,
2013-09-08 03:02:00,59.0,59.0,29.86,SW,225,0.0,5.0,100,-99.99,,,0.00,,2013-09-08 07:02:00,
2013-09-08 03:42:00,59.0,59.0,29.87,SW,225,4.0,10.0,99,-99.99,,,0.00,,2013-09-08 07:42:00,
2013-09-08 03:52:00,59.0,59.0,29.87,SW,225,4.0,10.0,99,-99.99,,,0.00,,2013-09-08 07:52:00,
2013-09-08 04:02:00,59.0,59.0,29.87,SW,225,4.0,10.0,99,-99.99,,,0.00,,2013-09-08 08:02:00,
2013-09-08 11:04:00,53.0,36.0,29.97,WSW,247,13.0,22.0,53,-99.99,,,0.00,,2013-09-08 15:04:00,
2013-09-08 11:45:00,53.0,36.0,29.97,WSW,247,13.0,22.0,53,-99.99,,,0.00,,2013-09-08 15:45:00,
2013-09-08 11:55:00,53.0,36.0,29.97,WSW,247,13.0,22.0,53,-99.99,,,0.00,,2013-09-08 15:55:00,
2013-09-08 13:43:00,54.0,44.0,30.00,West,270,9.0,21.0,68,-99.99,,,0.00,,2013-09-08 17:43:00,
2013-09-08 13:53:00,54.0,44.0,30.00,West,270,9.0,21.0,68,-99.99,,,0.00,,2013-09-08 17:53:00,
2013-09-08 14:02:00,54.0,44.0,30.00,West,270,9.0,21.0,68,-99.99,,,0.00,,2013-09-08 18:02:00,
2013-09-08 14:43:00,57.0,47.0,29.93,West,270,16.0,25.0,70,-99.99,,,0.00,,2013-09-08 18:43:00,
2013-09-08 14:52:00,57.0,47.0,29.93,West,270,16.0,25.0,70,-99.99,,,0.00,,2013-09-08 18:52:00,
2013-09-08 15:02:00,57.0,47.0,29.93,West,270,16.0,25.0,70,-99.99,,,0.00,,2013-09-08 19:02:00,
2013-09-08 15:42:00,55.0,47.0,29.89,WSW,247,15.0,30.0,73,-99.99,,,-99.99,,2013-09-08 19:42:00,
2013-09-08 15:52:00,55.0,47.0,29.89,WSW,247,15.0,30.0,73,-99.99,,,-99.99,,2013-09-08 19:52:00,
2013-09-08 16:03:00,55.0,47.0,29.89,WSW,247,15.0,30.0,73,-99.99,,,-99.99,,2013-09-08 20:03:00,
2013-09-08 16:42:00,53.0,47.0,29.93,SSW,202,6.0,31.0,80,-99.99,,,0.00,,2013-09-08 20:42:00,
2013-09-08 16:53:00,53.0,47.0,29.93,SSW,202,6.0,31.0,80,-99.99,,,0.00,,2013-09-08 20:53:00,
2013-09-08 17:03:00,53.0,47.0,29.93,SSW,202,6.0,31.0,80,-99.99,,,0.00,,2013-09-08 21:03:00,
2013-09-08 18:04:00,49.0,34.0,30.00,SW,225,11.0,27.0,57,-99.99,,,0.00,,2013-09-08 22:04:00,
2013-09-08 18:44:00,49.0,34.0,30.00,SW,225,11.0,27.0,57,-99.99,,,0.00,,2013-09-08 22:44:00,
2013-09-08 18:53:00,49.0,34.0,30.00,SW,225,11.0,27.0,57,-99.99,,,0.00,,2013-09-08 22:53:00,